Orbital Elements at Epoch 2459200.5 (2020-Dec-17.0) TDB
Reference: JPL 25 (heliocentric ecliptic J2000)
Element | Value | Uncertainty (1-sigma) | Units |
e | .1013372489808735 | 4.1984e-08 | |
a | 2.987262721528657 | 1.9479e-08 | au |
q | 2.684541735345826 | 1.266e-07 | au |
i | 10.60597600364341 | 4.6893e-06 | deg |
node | 139.3653978157798 | 2.3003e-05 | deg |
peri | 203.2602377003756 | 3.226e-05 | deg |
M | 329.5050468922058 | 2.6117e-05 | deg |
tp | 2459360.247483302279 (2021-May-25.74748330) | 0.00013773 | TDB |
period | 1885.856121356735 5.16 | 1.8445e-05 5.05e-08 | d yr |
n | .1908947325955102 | 1.8671e-09 | deg/d |
Q | 3.289983707711488 | 2.1453e-08 | au |
|
| | Orbit Determination Parameters
Additional Information
|